Back to catalog

STARLINK-11415

AliveCommunicationsVLEO
NORAD 62592·PAYLOAD·🇺🇸 United States

Launched Jan 13, 2025 from Cape Canaveral Space Force Station

Loading…

Next Passes (next 24 hours)

TLE

FreshSource: CelesTrak SupGP

Epoch: Sep 14, 2026, 14:37 UTC

1 62592C 25008F   26257.60951389 -.00008237  00000+0 -63993-4 0  2574
2 62592  43.0007  67.7729 0001746 262.2827  55.5116 15.70836520    16

Track STARLINK-11415 in real time with AllMySat

Download on the App Store